SES-17

Last updated on Mon Sep 14 2026 00:03:01 GMT+0000 (Coordinated Universal Time)

1 49332U 21095A 26255.56608519 -.00000286 00000+0 00000+0 0 9993 2 49332 0.0322 54.4879 0001007 110.7253 323.0498 1.00270580 18735
UTC large
Height (km)
Speed (km/s)
/
Latitude / Longitude
Inclination (degrees)
Orbital Period (minutes)
Azimuth
Elevation
Range (km)
Doppler Factor

Next 0 passes for location: London (51.5072 / 0.1276)

No passes found over London.
SES-17